This is the latest recevied weather packets stored in our database for station/object AD8BV. If no packets are shown the sender has not sent any weather packets the latest 10 day(s).
| Time | Temp. | Humidity | Pressure | Rain* | Wind** | Luminosity | Snow |
|---|---|---|---|---|---|---|---|
| 1777855265 | 11.11° C | 71% | 1010.3 hPa | 0 mm | - | 0 W/m² | - |
| 1777854961 | 11.11° C | 71% | 1010.4 hPa | 0 mm | - | 2 W/m² | - |
| 1777854658 | 11.11° C | 71% | 1010.2 hPa | 0 mm | - | 3 W/m² | - |
| 1777854355 | 11.11° C | 70% | 1010.4 hPa | 0 mm | - | 4 W/m² | - |
| 1777854053 | 11.11° C | 70% | 1010.4 hPa | 0 mm | - | 7 W/m² | - |
| 1777853750 | 11.11° C | 70% | 1010.4 hPa | 0 mm | - | 9 W/m² | - |
| 1777853446 | 11.11° C | 70% | 1010.6 hPa | 0 mm | - | 12 W/m² | - |
| 1777853143 | 11.11° C | 69% | 1010.8 hPa | 0 mm | - | 16 W/m² | - |
| 1777852841 | 11.11° C | 70% | 1010.8 hPa | 0 mm | - | 20 W/m² | - |
| 1777852539 | 11.67° C | 71% | 1010.7 hPa | 0 mm | - | 20 W/m² | - |
| 1777852235 | 11.67° C | 71% | 1010.7 hPa | 0 mm | - | 15 W/m² | - |
| 1777851933 | 11.67° C | 71% | 1010.8 hPa | 0 mm | - | 22 W/m² | - |
| 1777851631 | 11.67° C | 69% | 1010.7 hPa | 0 mm | - | 33 W/m² | - |
| 1777851327 | 11.67° C | 70% | 1010.9 hPa | 0 mm | - | 49 W/m² | - |
| 1777851023 | 11.67° C | 71% | 1010.9 hPa | 0 mm | - | 46 W/m² | - |
| 1777850720 | 11.67° C | 70% | 1011.1 hPa | 0 mm | - | 36 W/m² | - |
| 1777850418 | 11.67° C | 69% | 1011 hPa | 0 mm | - | 42 W/m² | - |
| 1777850116 | 11.67° C | 70% | 1011.2 hPa | 0 mm | - | 46 W/m² | - |
| 1777849812 | 11.67° C | 71% | 1011.2 hPa | 0 mm | - | 50 W/m² | - |
| 1777849509 | 11.67° C | 68% | 1011.3 hPa | 0 mm | - | 41 W/m² | - |
| 1777849206 | 11.67° C | 68% | 1011.3 hPa | 0 mm | - | 41 W/m² | - |
| 1777848903 | 11.67° C | 68% | 1011.7 hPa | 0 mm | - | 36 W/m² | - |
| 1777848598 | 11.67° C | 68% | 1011.4 hPa | 0 mm | - | 34 W/m² | - |
| 1777848296 | 12.22° C | 68% | 1011.6 hPa | 0 mm | - | 35 W/m² | - |
| 1777847993 | 11.67° C | 68% | 1011.4 hPa | 0 mm | - | 44 W/m² | - |
* Rain latest hour (hover to see other rain measurements)
** Current wind speed in m/s (hover to see current wind gust speed)